| time (UTC) | temp F | wind direction | speed knots | gust knots | rain 1hr in | rain 24hr in | rain mn in | humidity % | barometer mb |
| 20260503053004 | 58 | 80 | 0.0 | 1.7 | 0.00 | 0.00 | 0.00 | 61 | 1025.1 |
| 20260503052005 | 57 | 71 | 0.0 | 0.9 | 0.00 | 0.00 | 0.00 | 61 | 1025.1 |
| 20260503051005 | 56 | 77 | 0.9 | 0.9 | 0.00 | 0.00 | 0.00 | 63 | 1025.4 |
| 20260503050005 | 54 | 34 | 0.9 | 1.7 | 0.00 | 0.00 | 0.00 | 68 | 1025.4 |
| 20260503045004 | 53 | 44 | 0.0 | 1.7 | 0.00 | 0.00 | 0.00 | 68 | 1025.1 |
| 20260503044005 | 52 | 46 | 1.7 | 1.7 | 0.00 | 0.00 | 0.00 | 70 | 1025.1 |
| 20260503042005 | 51 | 40 | 1.7 | 1.7 | 0.00 | 0.00 | 0.00 | 72 | 1025.1 |
| 20260503041005 | 51 | 42 | 0.9 | 1.7 | 0.00 | 0.00 | 0.00 | 73 | 1025.1 |
| 20260503040005 | 51 | 44 | 0.9 | 1.7 | 0.00 | 0.00 | 0.00 | 73 | 1025.1 |
| 20260503035004 | 51 | 50 | 0.9 | 1.7 | 0.00 | 0.00 | 0.00 | 73 | 1025.1 |
| 20260503034005 | 51 | 67 | 0.0 | 0.0 | 0.00 | 0.00 | 0.00 | 72 | 1025.1 |
| 20260503032005 | 51 | 65 | 0.0 | 0.9 | 0.00 | 0.00 | 0.00 | 73 | 1024.7 |
| 20260503025004 | 51 | 54 | 0.0 | 2.6 | 0.00 | 0.00 | 0.00 | 72 | 1024.7 |
| 20260503024005 | 52 | 56 | 0.0 | 0.9 | 0.00 | 0.00 | 0.00 | 71 | 1024.7 |
| 20260503023004 | 52 | 73 | 0.9 | 1.7 | 0.00 | 0.00 | 0.00 | 71 | 1024.7 |
| 20260503022005 | 53 | 60 | 0.9 | 1.7 | 0.00 | 0.00 | 0.00 | 72 | 1024.7 |
| 20260503021005 | 53 | 104 | 1.7 | 2.6 | 0.00 | 0.00 | 0.00 | 69 | 1024.7 |
| 20260503020004 | 53 | 71 | 0.9 | 2.6 | 0.00 | 0.00 | 0.00 | 67 | 1024.7 |
| 20260503015005 | 53 | 60 | 0.0 | 0.0 | 0.00 | 0.00 | 0.00 | 68 | 1024.4 |
| 20260503012005 | 52 | 70 | 0.0 | 0.0 | 0.00 | 0.00 | 0.00 | 68 | 1024.7 |
| 20260503011005 | 53 | 66 | 0.0 | 0.0 | 0.00 | 0.00 | 0.00 | 67 | 1024.7 |
| 20260503010005 | 53 | 67 | 0.0 | 0.0 | 0.00 | 0.00 | 0.00 | 66 | 1024.7 |
| 20260503003005 | 54 | 71 | 0.0 | 0.0 | 0.00 | 0.00 | 0.00 | 65 | 1024.4 |
| 20260503001005 | 54 | 70 | 0.0 | 0.0 | 0.00 | 0.00 | 0.00 | 64 | 1024.7 |
| 20260503000004 | 55 | 68 | 0.0 | 0.0 | 0.00 | 0.00 | 0.00 | 63 | 1024.7 |
| 20260502235005 | 55 | 65 | 0.0 | 0.0 | 0.00 | 0.00 | 0.00 | 62 | 1024.7 |
| 20260502234005 | 55 | 69 | 0.0 | 0.0 | 0.00 | 0.00 | 0.00 | 61 | 1024.7 |
| 20260502233005 | 56 | 53 | 0.0 | 0.0 | 0.00 | 0.00 | 0.00 | 60 | 1025.1 |
| 20260502232005 | 56 | 58 | 0.0 | 0.0 | 0.00 | 0.00 | 0.00 | 58 | 1025.1 |
| 20260502230004 | 57 | 76 | 0.0 | 0.9 | 0.00 | 0.00 | 0.00 | 57 | 1025.1 |
| 20260502223005 | 58 | 65 | 0.9 | 1.7 | 0.00 | 0.00 | 0.00 | 54 | 1025.4 |
| 20260502220005 | 59 | 255 | 1.7 | 1.7 | 0.00 | 0.00 | 0.00 | 53 | 1025.4 |
| 20260502215004 | 59 | 82 | 0.9 | 1.7 | 0.00 | 0.00 | 0.00 | 53 | 1025.4 |
| 20260502214004 | 59 | 49 | 0.0 | 0.9 | 0.00 | 0.00 | 0.00 | 53 | 1025.4 |
| 20260502212005 | 59 | 253 | 0.9 | 0.9 | 0.00 | 0.00 | 0.00 | 52 | 1025.4 |
| 20260502211005 | 60 | 64 | 0.0 | 0.9 | 0.00 | 0.00 | 0.00 | 52 | 1025.4 |
| 20260502205005 | 60 | 227 | 1.7 | 2.6 | 0.00 | 0.00 | 0.00 | 51 | 1025.7 |
| 20260502204004 | 61 | 98 | 0.9 | 1.7 | 0.00 | 0.00 | 0.00 | 51 | 1025.7 |
| 20260502203004 | 61 | 87 | 0.9 | 1.7 | 0.00 | 0.00 | 0.00 | 50 | 1025.7 |
| 20260502202005 | 61 | 94 | 0.0 | 0.9 | 0.00 | 0.00 | 0.00 | 50 | 1025.7 |
| 20260502201005 | 61 | 159 | 0.9 | 0.9 | 0.00 | 0.00 | 0.00 | 51 | 1026.1 |
| 20260502200005 | 61 | 124 | 0.9 | 0.9 | 0.00 | 0.00 | 0.00 | 50 | 1026.0 |
| 20260502195005 | 62 | 144 | 0.9 | 1.7 | 0.00 | 0.00 | 0.00 | 49 | 1025.7 |
| 20260502193005 | 64 | 94 | 0.0 | 0.9 | 0.00 | 0.00 | 0.00 | 48 | 1025.7 |
| 20260502191004 | 65 | 203 | 0.9 | 1.7 | 0.00 | 0.00 | 0.00 | 45 | 1025.7 |
| 20260502190005 | 65 | 33 | 0.9 | 1.7 | 0.00 | 0.00 | 0.00 | 44 | 1025.7 |
| 20260502183005 | 69 | 83 | 0.0 | 0.9 | 0.00 | 0.00 | 0.00 | 36 | 1025.7 |
| 20260502182005 | 70 | 62 | 0.0 | 1.7 | 0.00 | 0.00 | 0.00 | 33 | 1025.4 |
| 20260502181004 | 71 | 121 | 0.9 | 1.7 | 0.00 | 0.00 | 0.00 | 33 | 1025.4 |
| 20260502164005 | 75 | 15 | 4.3 | 5.2 | 0.00 | 0.00 | 0.00 | 32 | 1025.4 |
| 20260502162005 | 76 | 78 | 2.6 | 5.2 | 0.00 | 0.00 | 0.00 | 31 | 1025.7 |
| 20260502161005 | 74 | 22 | 4.3 | 6.1 | 0.00 | 0.00 | 0.00 | 32 | 1026.1 |
| 20260502151005 | 77 | 75 | 0.0 | 4.3 | 0.00 | 0.00 | 0.00 | 31 | 1026.4 |
| 20260502122005 | 77 | 100 | 2.6 | 7.0 | 0.00 | 0.00 | 0.00 | 32 | 1028.1 |
| 20260502121005 | 77 | 12 | 1.7 | 5.2 | 0.00 | 0.00 | 0.00 | 32 | 1028.4 |
| 20260502115005 | 77 | 164 | 2.6 | 2.6 | 0.00 | 0.00 | 0.00 | 32 | 1028.8 |
| 20260502114005 | 76 | 60 | 0.9 | 2.6 | 0.00 | 0.00 | 0.00 | 33 | 1029.1 |
| 20260502113005 | 76 | 64 | 1.7 | 4.3 | 0.00 | 0.00 | 0.00 | 32 | 1029.1 |
| 20260502112004 | 76 | 83 | 0.0 | 0.9 | 0.00 | 0.00 | 0.00 | 32 | 1029.1 |
| 20260502110005 | 76 | 96 | 1.7 | 7.0 | 0.00 | 0.00 | 0.00 | 34 | 1029.1 |
| 20260502105005 | 74 | 122 | 2.6 | 5.2 | 0.00 | 0.00 | 0.00 | 34 | 1029.1 |
| 20260502104005 | 75 | 134 | 4.3 | 5.2 | 0.00 | 0.00 | 0.00 | 32 | 1029.5 |
| 20260502103005 | 76 | 6 | 0.9 | 4.3 | 0.00 | 0.00 | 0.00 | 31 | 1029.5 |
| 20260502102004 | 73 | 78 | 0.9 | 7.0 | 0.00 | 0.00 | 0.00 | 33 | 1029.8 |
| 20260502101005 | 75 | 29 | 1.7 | 7.8 | 0.00 | 0.00 | 0.00 | 32 | 1029.8 |
| 20260502070005 | 63 | 60 | 0.0 | 1.7 | 0.00 | 0.00 | 0.00 | 53 | 1031.5 |
| 20260502064005 | 64 | 65 | 0.9 | 0.9 | 0.00 | 0.00 | 0.00 | 52 | 1031.2 |
| 20260502062004 | 62 | 89 | 0.9 | 1.7 | 0.00 | 0.00 | 0.00 | 55 | 1031.2 |
| 20260502060005 | 61 | 58 | 0.0 | 0.9 | 0.00 | 0.00 | 0.00 | 55 | 1031.2 |